Location: Beddau
(51.5575°N, 3.3561°W)
Time: 03:05:32
(UTC+00:00)

Cosmos 1000 Rocket - Pass Details

Date: 03 March 2021
Orbit: 954 x 991 km, 82.9° (Epoch: 12 April)

Event Time Altitude Azimuth Distance (km) Brightness Sun altitude
Rises 20:38:53 0° 350° (N) 3,688 8.0 -25.4°
Reaches altitude 10° 20:41:24 10° 352° (N) 2,742 7.2 -25.7°
Maximum altitude 20:47:43 77° 79° (ENE) 1,014 4.4 -26.6°
Enters shadow 20:48:33 66° 138° (SE) 1,071 4.4 -26.7°
